STARLINK-2401, 47818

Orbit data source: Space-Track

STARLINK-2401, 47818 is a payload satellite owned by SpaceX/Seattle (US) in LEO that was launched on Thu, 11 Mar 2021 UTC via an FALCON 9 launch vehicle from the Air Force Eastern Test Range (AFETR). Payload-class satellites include a variety of spacecraft equipped with specific instruments for various scientific and technological missions. These include communications satellites like Starlink; space stations such as the ISS; scientific satellites like the Hubble; Earth observation satellites from companies like Planet Labs, Umbra, and HawkEye 360; GPS; miniature CubeSats for education and research; and military/defense satellites.

Loading next visibility...
Identifier
47818, 2021-018AH
Orbit
LEO
Country
Flag of USUS
Related business
Manufacturer
SpaceX/Seattle
Mission
null Commercial Communications
Bus & Motor
STARLINK, Unknown motor
Mass
260 kg wet, ~248 kg dry
Launch date (UTC)
2021-03-11 (5 years ago)
Launch vehicle
FALCON 9
Launch site
Air Force Eastern Test Range (AFETR)
Object type
Payload
Rocket body
Debris
Shape & HBR
Box + 1 Pan, 10.1 m
Radar Cross Section
13.562 m², Large (>1 m²)

Expand to show TLE details & history
Last TLE update: 12 hours ago

TLE from 12 hours ago
0 STARLINK-2401
1 47818U 21018AH  26119.99504912  .00092212  00000-0  16171-2 0  9992
2 47818  53.0514   7.9630 0004154 136.7442 223.3893 15.49812009284513
Epoch: 2026-04-29T23:52Z
TLE epoch observation values (Epoch: 2026-04-29T23:52:52.243Z)
Latitude
-0.00002°
Longitude
151.79729°
Altitude
420.223 km
Speed
7.659 km/s
True Right ascension
00h 31m 51s
True Declination
0° 00' 00"
Sunlit
Object was in daylight at epoch
Visualization orbit readout
Latitude
Unknown
Longitude
Unknown
Altitude
Unknown
Speed
Unknown
Apparent Right ascension
Unknown
Apparent Declination
Unknown
Sunlit
N/A
Visualization observer readout
Local Sidereal Time
18:58:44
Azimuth
Unknown
Elevation
Unknown
Doppler factor
Unknown
Orbital elements
Apogee altitude
420.375 km
Perigee altitude
414.729 km
Semi-major axis
6,795.689 km
Eccentricity
0.00042
Inclination
53.0514°
RAAN
7.963°
Arg. of periapsis
136.7442°
True anomaly
223.35661°
Mean anomaly
223.3893°
Eccentric anomaly
223.37296°
Mean motion
3.8743 °/min
Orbital period
92.92 mins
BSTAR
0.0016171
Loading maneuver chart data...
Computing Atmospheric mass density...
Loading historical data...
Loading historical data...
Loading historical data...
Loading historical data...
Loading historical data...
Loading historical data...
Loading historical data...

Documentation

Showing up to 5 results
|